Orbital Elements at Epoch 2459000.5 (2020-May-31.0) TDB
Reference: JPL 22 (heliocentric ecliptic J2000)
Element | Value | Uncertainty (1-sigma) | Units |
e | .1120179523597352 | 4.1274e-08 | |
a | 3.204720451460775 | 2.1322e-08 | au |
q | 2.845734228602773 | 1.3118e-07 | au |
i | 13.49192301512828 | 5.3807e-06 | deg |
node | 343.0711486818962 | 2.1867e-05 | deg |
peri | 122.9536570535747 | 3.491e-05 | deg |
M | 119.3975240691603 | 2.6511e-05 | deg |
tp | 2458305.513329810201 (2018-Jul-06.01332981) | 0.00015289 | TDB |
period | 2095.480649359224 5.74 | 2.0913e-05 5.726e-08 | d yr |
n | .1717982936802992 | 1.7145e-09 | deg/d |
Q | 3.563706674318777 | 2.371e-08 | au |
|
| | Orbit Determination Parameters
Additional Information
|